owner,sensor,date,latitude,longitude,vertical_datum,wind_speed,wind_to_direction,wind_speed_of_gust,qcFlag 
TCOON,ioos:station:TCOON:009:1,2009-01-01T00:00:00Z,27.8398,-97.0727,0.0,6.7,59.0,8.0,'11111222,11111222,11111222' 
TCOON,ioos:station:TCOON:009:1,2009-01-01T01:00:00Z,27.8398,-97.0727,0.0,8.5,64.0,9.6,'11111222,11111222,11111222' 
TCOON,ioos:station:TCOON:009:1,2009-01-01T03:00:00Z,27.8398,-97.0727,0.0,7.9,66.0,9.1,'11111222,11111222,11111222' 
TCOON,ioos:station:TCOON:009:1,2009-01-01T04:00:00Z,27.8398,-97.0727,0.0,7.6,69.0,8.6,'11111222,11111222,11111222' 
TCOON,ioos:station:TCOON:009:1,2009-01-01T05:00:00Z,27.8398,-97.0727,0.0,6.8,65.0,7.8,'11111222,11111222,11111222' 
TCOON,ioos:station:TCOON:009:1,2009-01-01T06:00:00Z,27.8398,-97.0727,0.0,6.6,65.0,8.0,'11111222,11111222,11111222' 
TCOON,ioos:station:TCOON:009:1,2009-01-01T07:00:00Z,27.8398,-97.0727,0.0,7.0,66.0,7.9,'11111222,11111222,11111222' 
TCOON,ioos:station:TCOON:009:1,2009-01-01T08:00:00Z,27.8398,-97.0727,0.0,4.8,55.0,5.6,'11111222,11111222,11111222' 
TCOON,ioos:station:TCOON:009:1,2009-01-01T09:00:00Z,27.8398,-97.0727,0.0,3.4,37.0,4.1,'11111222,11111222,11111222' 
TCOON,ioos:station:TCOON:009:1,2009-01-01T10:00:00Z,27.8398,-97.0727,0.0,5.4,56.0,6.2,'11111222,11111222,11111222' 
TCOON,ioos:station:TCOON:009:1,2009-01-01T11:00:00Z,27.8398,-97.0727,0.0,3.8,36.0,4.7,'11111222,11111222,11111222' 
TCOON,ioos:station:TCOON:009:1,2009-01-01T12:00:00Z,27.8398,-97.0727,0.0,3.2,42.0,3.7,'11111222,11111222,11111222' 
TCOON,ioos:station:TCOON:009:1,2009-01-01T13:00:00Z,27.8398,-97.0727,0.0,3.2,36.0,4.2,'11111222,11111222,11111222' 
TCOON,ioos:station:TCOON:009:1,2009-01-01T14:00:00Z,27.8398,-97.0727,0.0,3.6,56.0,4.2,'11111222,11111222,11111222' 
TCOON,ioos:station:TCOON:009:1,2009-01-01T15:00:00Z,27.8398,-97.0727,0.0,3.2,48.0,3.6,'11111222,11111222,11111222' 
TCOON,ioos:station:TCOON:009:1,2009-01-01T16:00:00Z,27.8398,-97.0727,0.0,3.8,54.0,4.4,'11111222,11111222,11111222' 
TCOON,ioos:station:TCOON:009:1,2009-01-01T18:00:00Z,27.8398,-97.0727,0.0,2.8,87.0,3.5,'11111222,11111222,11111222' 
TCOON,ioos:station:TCOON:009:1,2009-01-01T19:00:00Z,27.8398,-97.0727,0.0,2.5,70.0,2.8,'11111222,11111222,11111222' 
TCOON,ioos:station:TCOON:009:1,2009-01-01T20:00:00Z,27.8398,-97.0727,0.0,3.4,83.0,4.1,'11111222,11111222,11111222' 
TCOON,ioos:station:TCOON:009:1,2009-01-01T21:00:00Z,27.8398,-97.0727,0.0,3.2,77.0,3.7,'11111222,11111222,11111222' 
TCOON,ioos:station:TCOON:009:1,2009-01-01T22:00:00Z,27.8398,-97.0727,0.0,2.0,114.0,3.0,'11111222,11111222,11111222' 
TCOON,ioos:station:TCOON:009:1,2009-01-01T23:00:00Z,27.8398,-97.0727,0.0,2.9,127.0,3.5,'11111222,11111222,11111222' 
TCOON,ioos:station:TCOON:009:1,2009-01-02T00:00:00Z,27.8398,-97.0727,0.0,1.8,153.0,2.7,'11111222,11111222,11111222' 
TCOON,ioos:station:TCOON:009:1,2009-01-02T01:00:00Z,27.8398,-97.0727,0.0,2.1,161.0,3.1,'11111222,11111222,11111222' 
TCOON,ioos:station:TCOON:009:1,2009-01-02T02:00:00Z,27.8398,-97.0727,0.0,3.0,159.0,4.7,'11111222,11111222,11111222' 
TCOON,ioos:station:TCOON:009:1,2009-01-02T03:00:00Z,27.8398,-97.0727,0.0,2.5,159.0,3.7,'11111222,11111222,11111222' 
TCOON,ioos:station:TCOON:009:1,2009-01-02T04:00:00Z,27.8398,-97.0727,0.0,3.8,180.0,5.1,'11111222,11111222,11111222' 
TCOON,ioos:station:TCOON:009:1,2009-01-02T05:00:00Z,27.8398,-97.0727,0.0,3.9,180.0,5.5,'11111222,11111222,11111222' 
TCOON,ioos:station:TCOON:009:1,2009-01-02T06:00:00Z,27.8398,-97.0727,0.0,2.8,206.0,4.1,'11111222,11111222,11111222' 
TCOON,ioos:station:TCOON:009:1,2009-01-02T07:00:00Z,27.8398,-97.0727,0.0,2.3,207.0,3.4,'11111222,11111222,11111222' 
TCOON,ioos:station:TCOON:009:1,2009-01-02T08:00:00Z,27.8398,-97.0727,0.0,1.6,198.0,2.3,'11111222,11111222,11111222' 
TCOON,ioos:station:TCOON:009:1,2009-01-02T09:00:00Z,27.8398,-97.0727,0.0,3.2,183.0,4.0,'11111222,11111222,11111222' 
TCOON,ioos:station:TCOON:009:1,2009-01-02T10:00:00Z,27.8398,-97.0727,0.0,1.0,213.0,1.5,'11111222,11111222,11111222' 
TCOON,ioos:station:TCOON:009:1,2009-01-02T11:00:00Z,27.8398,-97.0727,0.0,2.7,183.0,3.6,'11111222,11111222,11111222' 
TCOON,ioos:station:TCOON:009:1,2009-01-02T12:00:00Z,27.8398,-97.0727,0.0,1.1,185.0,1.5,'11111222,11111222,11111222' 
TCOON,ioos:station:TCOON:009:1,2009-01-02T13:00:00Z,27.8398,-97.0727,0.0,0.7,161.0,1.1,'11111222,11111222,11111222' 
TCOON,ioos:station:TCOON:009:1,2009-01-02T14:00:00Z,27.8398,-97.0727,0.0,0.0,176.0,99.0,'11111222,11111222,11144222' 
TCOON,ioos:station:TCOON:009:1,2009-01-02T15:00:00Z,27.8398,-97.0727,0.0,1.5,172.0,2.2,'11111222,11111222,11111222' 
TCOON,ioos:station:TCOON:009:1,2009-01-02T16:00:00Z,27.8398,-97.0727,0.0,1.4,180.0,2.3,'11111222,11111222,11111222' 
TCOON,ioos:station:TCOON:009:1,2009-01-02T17:00:00Z,27.8398,-97.0727,0.0,1.6,164.0,2.2,'11111222,11111222,11111222' 
TCOON,ioos:station:TCOON:009:1,2009-01-02T18:00:00Z,27.8398,-97.0727,0.0,2.7,192.0,4.1,'11111222,11111222,11111222' 
TCOON,ioos:station:TCOON:009:1,2009-01-02T19:00:00Z,27.8398,-97.0727,0.0,2.2,150.0,3.1,'11111222,11111222,11111222' 
TCOON,ioos:station:TCOON:009:1,2009-01-02T20:00:00Z,27.8398,-97.0727,0.0,3.2,158.0,4.4,'11111222,11111222,11111222' 
TCOON,ioos:station:TCOON:009:1,2009-01-02T21:00:00Z,27.8398,-97.0727,0.0,4.4,159.0,6.5,'11111222,11111222,11111222' 
TCOON,ioos:station:TCOON:009:1,2009-01-02T22:00:00Z,27.8398,-97.0727,0.0,5.2,169.0,7.9,'11111222,11111222,11111222' 
TCOON,ioos:station:TCOON:009:1,2009-01-02T23:00:00Z,27.8398,-97.0727,0.0,4.5,157.0,7.0,'11111222,11111222,11111222' 
TCOON,ioos:station:TCOON:009:1,2009-01-03T00:00:00Z,27.8398,-97.0727,0.0,3.1,160.0,5.2,'11111222,11111222,11111222' 
TCOON,ioos:station:TCOON:009:1,2009-01-03T01:00:00Z,27.8398,-97.0727,0.0,4.3,152.0,6.5,'11111222,11111222,11111222' 
TCOON,ioos:station:TCOON:009:1,2009-01-03T02:00:00Z,27.8398,-97.0727,0.0,4.9,165.0,99.0,'11111222,11111222,11144222' 
TCOON,ioos:station:TCOON:009:1,2009-01-03T03:00:00Z,27.8398,-97.0727,0.0,3.4,167.0,5.7,'11111222,11111222,11111222' 
TCOON,ioos:station:TCOON:009:1,2009-01-03T04:00:00Z,27.8398,-97.0727,0.0,3.3,176.0,5.5,'11111222,11111222,11111222' 
TCOON,ioos:station:TCOON:009:1,2009-01-03T05:00:00Z,27.8398,-97.0727,0.0,3.5,174.0,4.6,'11111222,11111222,11111222' 
TCOON,ioos:station:TCOON:009:1,2009-01-03T06:00:00Z,27.8398,-97.0727,0.0,4.7,176.0,6.8,'11111222,11111222,11111222' 
TCOON,ioos:station:TCOON:009:1,2009-01-03T07:00:00Z,27.8398,-97.0727,0.0,4.1,186.0,6.1,'11111222,11111222,11111222' 
TCOON,ioos:station:TCOON:009:1,2009-01-03T08:00:00Z,27.8398,-97.0727,0.0,4.3,192.0,6.2,'11111222,11111222,11111222' 
TCOON,ioos:station:TCOON:009:1,2009-01-03T09:00:00Z,27.8398,-97.0727,0.0,3.5,200.0,5.4,'11111222,11111222,11111222' 
TCOON,ioos:station:TCOON:009:1,2009-01-03T10:00:00Z,27.8398,-97.0727,0.0,6.4,185.0,9.4,'11111222,11111222,11111222' 
TCOON,ioos:station:TCOON:009:1,2009-01-03T11:00:00Z,27.8398,-97.0727,0.0,14.1,171.0,19.1,'11111222,11111222,11111222' 
TCOON,ioos:station:TCOON:009:1,2009-01-03T12:00:00Z,27.8398,-97.0727,0.0,7.2,159.0,11.7,'11111222,11111222,11111222' 
TCOON,ioos:station:TCOON:009:1,2009-01-03T13:00:00Z,27.8398,-97.0727,0.0,4.2,150.0,7.8,'11111222,11111222,11111222' 
TCOON,ioos:station:TCOON:009:1,2009-01-03T14:00:00Z,27.8398,-97.0727,0.0,5.4,173.0,8.3,'11111222,11111222,11111222' 
TCOON,ioos:station:TCOON:009:1,2009-01-03T15:00:00Z,27.8398,-97.0727,0.0,4.4,190.0,6.1,'11111222,11111222,11111222' 
TCOON,ioos:station:TCOON:009:1,2009-01-03T16:00:00Z,27.8398,-97.0727,0.0,5.2,203.0,8.8,'11111222,11111222,11111222' 
TCOON,ioos:station:TCOON:009:1,2009-01-03T17:00:00Z,27.8398,-97.0727,0.0,5.5,198.0,8.9,'11111222,11111222,11111222' 
TCOON,ioos:station:TCOON:009:1,2009-01-03T18:00:00Z,27.8398,-97.0727,0.0,6.9,194.0,10.4,'11111222,11111222,11111222' 
TCOON,ioos:station:TCOON:009:1,2009-01-03T19:00:00Z,27.8398,-97.0727,0.0,7.0,195.0,10.1,'11111222,11111222,11111222' 
TCOON,ioos:station:TCOON:009:1,2009-01-03T20:00:00Z,27.8398,-97.0727,0.0,6.3,184.0,9.1,'11111222,11111222,11111222' 
TCOON,ioos:station:TCOON:009:1,2009-01-03T21:00:00Z,27.8398,-97.0727,0.0,4.9,178.0,7.2,'11111222,11111222,11111222' 
TCOON,ioos:station:TCOON:009:1,2009-01-03T22:00:00Z,27.8398,-97.0727,0.0,4.9,170.0,8.4,'11111222,11111222,11111222' 
TCOON,ioos:station:TCOON:009:1,2009-01-03T23:00:00Z,27.8398,-97.0727,0.0,5.7,164.0,9.3,'11111222,11111222,11111222' 
TCOON,ioos:station:TCOON:009:1,2009-01-04T00:00:00Z,27.8398,-97.0727,0.0,4.9,161.0,7.7,'11111222,11111222,11111222' 
TCOON,ioos:station:TCOON:009:1,2009-01-04T01:00:00Z,27.8398,-97.0727,0.0,4.2,166.0,7.5,'11111222,11111222,11111222' 
TCOON,ioos:station:TCOON:009:1,2009-01-04T02:00:00Z,27.8398,-97.0727,0.0,5.0,177.0,6.8,'11111222,11111222,11111222' 
TCOON,ioos:station:TCOON:009:1,2009-01-04T03:00:00Z,27.8398,-97.0727,0.0,3.8,177.0,5.4,'11111222,11111222,11111222' 
TCOON,ioos:station:TCOON:009:1,2009-01-04T04:00:00Z,27.8398,-97.0727,0.0,4.5,172.0,6.7,'11111222,11111222,11111222' 
TCOON,ioos:station:TCOON:009:1,2009-01-04T05:00:00Z,27.8398,-97.0727,0.0,3.3,176.0,6.9,'11111222,11111222,11111222' 
TCOON,ioos:station:TCOON:009:1,2009-01-04T06:00:00Z,27.8398,-97.0727,0.0,3.8,175.0,6.2,'11111222,11111222,11111222' 
TCOON,ioos:station:TCOON:009:1,2009-01-04T07:00:00Z,27.8398,-97.0727,0.0,4.5,179.0,6.8,'11111222,11111222,11111222' 
TCOON,ioos:station:TCOON:009:1,2009-01-04T08:00:00Z,27.8398,-97.0727,0.0,4.3,173.0,6.0,'11111222,11111222,11111222' 
TCOON,ioos:station:TCOON:009:1,2009-01-04T09:00:00Z,27.8398,-97.0727,0.0,3.0,177.0,5.2,'11111222,11111222,11111222' 
TCOON,ioos:station:TCOON:009:1,2009-01-04T10:00:00Z,27.8398,-97.0727,0.0,3.2,167.0,4.4,'11111222,11111222,11111222' 
TCOON,ioos:station:TCOON:009:1,2009-01-04T11:00:00Z,27.8398,-97.0727,0.0,3.8,173.0,6.3,'11111222,11111222,11111222' 
TCOON,ioos:station:TCOON:009:1,2009-01-04T12:00:00Z,27.8398,-97.0727,0.0,2.6,158.0,4.1,'11111222,11111222,11111222' 
TCOON,ioos:station:TCOON:009:1,2009-01-04T13:00:00Z,27.8398,-97.0727,0.0,1.7,156.0,2.7,'11111222,11111222,11111222' 
TCOON,ioos:station:TCOON:009:1,2009-01-04T14:00:00Z,27.8398,-97.0727,0.0,2.0,75.0,2.3,'11111222,11111222,11111222' 
TCOON,ioos:station:TCOON:009:1,2009-01-04T15:00:00Z,27.8398,-97.0727,0.0,2.5,107.0,3.4,'11111222,11111222,11111222' 
TCOON,ioos:station:TCOON:009:1,2009-01-04T16:00:00Z,27.8398,-97.0727,0.0,2.8,91.0,3.6,'11111222,11111222,11111222' 
TCOON,ioos:station:TCOON:009:1,2009-01-04T17:00:00Z,27.8398,-97.0727,0.0,3.0,86.0,4.0,'11111222,11111222,11111222' 
TCOON,ioos:station:TCOON:009:1,2009-01-04T18:00:00Z,27.8398,-97.0727,0.0,3.0,92.0,3.7,'11111222,11111222,11111222' 
TCOON,ioos:station:TCOON:009:1,2009-01-04T19:00:00Z,27.8398,-97.0727,0.0,3.4,91.0,4.4,'11111222,11111222,11111222' 
TCOON,ioos:station:TCOON:009:1,2009-01-04T20:00:00Z,27.8398,-97.0727,0.0,4.8,95.0,6.0,'11111222,11111222,11111222' 
TCOON,ioos:station:TCOON:009:1,2009-01-04T21:00:00Z,27.8398,-97.0727,0.0,4.5,98.0,6.1,'11111222,11111222,11111222' 
TCOON,ioos:station:TCOON:009:1,2009-01-04T22:00:00Z,27.8398,-97.0727,0.0,4.3,100.0,5.8,'11111222,11111222,11111222' 
TCOON,ioos:station:TCOON:009:1,2009-01-04T23:00:00Z,27.8398,-97.0727,0.0,5.1,73.0,5.9,'11111222,11111222,11111222' 
TCOON,ioos:station:TCOON:009:1,2009-01-05T00:00:00Z,27.8398,-97.0727,0.0,10.1,20.0,12.3,'11111222,11111222,11111222' 
TCOON,ioos:station:TCOON:009:1,2009-01-05T01:00:00Z,27.8398,-97.0727,0.0,8.9,15.0,11.0,'11111222,11111222,11111222' 
TCOON,ioos:station:TCOON:009:1,2009-01-05T02:00:00Z,27.8398,-97.0727,0.0,9.0,9.0,11.1,'11111222,11111222,11111222' 
TCOON,ioos:station:TCOON:009:1,2009-01-05T03:00:00Z,27.8398,-97.0727,0.0,7.1,23.0,8.8,'11111222,11111222,11111222' 
TCOON,ioos:station:TCOON:009:1,2009-01-05T04:00:00Z,27.8398,-97.0727,0.0,9.0,17.0,10.8,'11111222,11111222,11111222' 
TCOON,ioos:station:TCOON:009:1,2009-01-05T05:00:00Z,27.8398,-97.0727,0.0,8.4,13.0,10.9,'11111222,11111222,11111222' 
TCOON,ioos:station:TCOON:009:1,2009-01-05T06:00:00Z,27.8398,-97.0727,0.0,7.3,8.0,9.9,'11111222,11111222,11111222' 
TCOON,ioos:station:TCOON:009:1,2009-01-05T07:00:00Z,27.8398,-97.0727,0.0,7.0,2.0,8.6,'11111222,11111222,11111222' 
TCOON,ioos:station:TCOON:009:1,2009-01-05T08:00:00Z,27.8398,-97.0727,0.0,7.1,9.0,8.4,'11111222,11111222,11111222' 
TCOON,ioos:station:TCOON:009:1,2009-01-05T09:00:00Z,27.8398,-97.0727,0.0,6.7,4.0,8.4,'11111222,11111222,11111222' 
TCOON,ioos:station:TCOON:009:1,2009-01-05T10:00:00Z,27.8398,-97.0727,0.0,6.7,359.0,8.4,'11111222,11111222,11111222' 
TCOON,ioos:station:TCOON:009:1,2009-01-05T11:00:00Z,27.8398,-97.0727,0.0,5.5,26.0,6.7,'11111222,11111222,11111222' 
TCOON,ioos:station:TCOON:009:1,2009-01-05T12:00:00Z,27.8398,-97.0727,0.0,5.1,352.0,6.9,'11111222,11111222,11111222' 
TCOON,ioos:station:TCOON:009:1,2009-01-05T13:00:00Z,27.8398,-97.0727,0.0,4.7,356.0,6.1,'11111222,11111222,11111222' 
TCOON,ioos:station:TCOON:009:1,2009-01-05T14:00:00Z,27.8398,-97.0727,0.0,5.6,350.0,6.8,'11111222,11111222,11111222' 
TCOON,ioos:station:TCOON:009:1,2009-01-05T15:00:00Z,27.8398,-97.0727,0.0,5.6,356.0,7.0,'11111222,11111222,11111222' 
TCOON,ioos:station:TCOON:009:1,2009-01-05T16:00:00Z,27.8398,-97.0727,0.0,5.4,2.0,6.8,'11111222,11111222,11111222' 
TCOON,ioos:station:TCOON:009:1,2009-01-05T17:00:00Z,27.8398,-97.0727,0.0,5.4,349.0,6.4,'11111222,11111222,11111222' 
TCOON,ioos:station:TCOON:009:1,2009-01-05T18:00:00Z,27.8398,-97.0727,0.0,4.9,344.0,6.2,'11111222,11111222,11111222' 
TCOON,ioos:station:TCOON:009:1,2009-01-05T19:00:00Z,27.8398,-97.0727,0.0,6.6,337.0,7.9,'11111222,11111222,11111222' 
TCOON,ioos:station:TCOON:009:1,2009-01-05T20:00:00Z,27.8398,-97.0727,0.0,6.4,342.0,7.1,'11111222,11111222,11111222' 
TCOON,ioos:station:TCOON:009:1,2009-01-05T21:00:00Z,27.8398,-97.0727,0.0,4.4,354.0,6.2,'11111222,11111222,11111222' 
TCOON,ioos:station:TCOON:009:1,2009-01-05T22:00:00Z,27.8398,-97.0727,0.0,4.8,1.0,5.9,'11111222,11111222,11111222' 
TCOON,ioos:station:TCOON:009:1,2009-01-05T23:00:00Z,27.8398,-97.0727,0.0,5.0,4.0,6.3,'11111222,11111222,11111222' 
TCOON,ioos:station:TCOON:009:1,2009-01-06T00:00:00Z,27.8398,-97.0727,0.0,3.6,358.0,4.3,'11111222,11111222,11111222' 
TCOON,ioos:station:TCOON:009:1,2009-01-06T01:00:00Z,27.8398,-97.0727,0.0,3.6,350.0,4.1,'11111222,11111222,11111222' 
TCOON,ioos:station:TCOON:009:1,2009-01-06T02:00:00Z,27.8398,-97.0727,0.0,4.5,352.0,5.8,'11111222,11111222,11111222' 
TCOON,ioos:station:TCOON:009:1,2009-01-06T03:00:00Z,27.8398,-97.0727,0.0,3.8,5.0,4.5,'11111222,11111222,11111222' 
TCOON,ioos:station:TCOON:009:1,2009-01-06T04:00:00Z,27.8398,-97.0727,0.0,4.0,352.0,4.6,'11111222,11111222,11111222' 
TCOON,ioos:station:TCOON:009:1,2009-01-06T05:00:00Z,27.8398,-97.0727,0.0,2.6,353.0,3.2,'11111222,11111222,11111222' 
TCOON,ioos:station:TCOON:009:1,2009-01-06T07:00:00Z,27.8398,-97.0727,0.0,2.6,324.0,3.0,'11111222,11111222,11111222' 
TCOON,ioos:station:TCOON:009:1,2009-01-06T08:00:00Z,27.8398,-97.0727,0.0,3.5,318.0,4.4,'11111222,11111222,11111222' 
TCOON,ioos:station:TCOON:009:1,2009-01-06T09:00:00Z,27.8398,-97.0727,0.0,4.0,320.0,4.6,'11111222,11111222,11111222' 
TCOON,ioos:station:TCOON:009:1,2009-01-06T10:00:00Z,27.8398,-97.0727,0.0,3.7,329.0,4.1,'11111222,11111222,11111222' 
TCOON,ioos:station:TCOON:009:1,2009-01-06T11:00:00Z,27.8398,-97.0727,0.0,6.2,331.0,7.3,'11111222,11111222,11111222' 
TCOON,ioos:station:TCOON:009:1,2009-01-06T12:00:00Z,27.8398,-97.0727,0.0,2.8,339.0,3.4,'11111222,11111222,11111222' 
TCOON,ioos:station:TCOON:009:1,2009-01-06T13:00:00Z,27.8398,-97.0727,0.0,3.8,332.0,4.4,'11111222,11111222,11111222' 
TCOON,ioos:station:TCOON:009:1,2009-01-06T14:00:00Z,27.8398,-97.0727,0.0,3.7,317.0,4.4,'11111222,11111222,11111222' 
TCOON,ioos:station:TCOON:009:1,2009-01-06T15:00:00Z,27.8398,-97.0727,0.0,5.7,302.0,7.2,'11111222,11111222,11111222' 
TCOON,ioos:station:TCOON:009:1,2009-01-06T16:00:00Z,27.8398,-97.0727,0.0,5.8,311.0,6.9,'11111222,11111222,11111222' 
TCOON,ioos:station:TCOON:009:1,2009-01-06T17:00:00Z,27.8398,-97.0727,0.0,2.7,19.0,3.2,'11111222,11111222,11111222' 
TCOON,ioos:station:TCOON:009:1,2009-01-06T20:00:00Z,27.8398,-97.0727,0.0,4.8,267.0,5.9,'11111222,11111222,11111222' 
TCOON,ioos:station:TCOON:009:1,2009-01-06T21:00:00Z,27.8398,-97.0727,0.0,4.8,293.0,5.8,'11111222,11111222,11111222' 
TCOON,ioos:station:TCOON:009:1,2009-01-06T22:00:00Z,27.8398,-97.0727,0.0,4.2,265.0,4.9,'11111222,11111222,11111222' 
TCOON,ioos:station:TCOON:009:1,2009-01-07T00:00:00Z,27.8398,-97.0727,0.0,1.9,281.0,2.3,'11111222,11111222,11111222' 
TCOON,ioos:station:TCOON:009:1,2009-01-07T01:00:00Z,27.8398,-97.0727,0.0,1.8,211.0,1.9,'11111222,11111222,11111222' 
TCOON,ioos:station:TCOON:009:1,2009-01-07T02:00:00Z,27.8398,-97.0727,0.0,2.9,194.0,3.0,'11111222,11111222,11111222' 
TCOON,ioos:station:TCOON:009:1,2009-01-07T03:00:00Z,27.8398,-97.0727,0.0,3.4,217.0,3.6,'11111222,11111222,11111222' 
TCOON,ioos:station:TCOON:009:1,2009-01-07T04:00:00Z,27.8398,-97.0727,0.0,3.7,217.0,4.1,'11111222,11111222,11111222' 
TCOON,ioos:station:TCOON:009:1,2009-01-07T05:00:00Z,27.8398,-97.0727,0.0,3.1,254.0,3.8,'11111222,11111222,11111222' 
TCOON,ioos:station:TCOON:009:1,2009-01-07T06:00:00Z,27.8398,-97.0727,0.0,3.8,274.0,4.6,'11111222,11111222,11111222' 
TCOON,ioos:station:TCOON:009:1,2009-01-07T07:00:00Z,27.8398,-97.0727,0.0,4.2,286.0,4.6,'11111222,11111222,11111222' 
TCOON,ioos:station:TCOON:009:1,2009-01-07T08:00:00Z,27.8398,-97.0727,0.0,4.1,328.0,4.8,'11111222,11111222,11111222' 
TCOON,ioos:station:TCOON:009:1,2009-01-07T09:00:00Z,27.8398,-97.0727,0.0,2.8,352.0,3.5,'11111222,11111222,11111222' 
TCOON,ioos:station:TCOON:009:1,2009-01-07T10:00:00Z,27.8398,-97.0727,0.0,2.7,4.0,3.1,'11111222,11111222,11111222' 
TCOON,ioos:station:TCOON:009:1,2009-01-07T11:00:00Z,27.8398,-97.0727,0.0,2.5,55.0,3.3,'11111222,11111222,11111222' 
TCOON,ioos:station:TCOON:009:1,2009-01-07T12:00:00Z,27.8398,-97.0727,0.0,2.4,25.0,2.7,'11111222,11111222,11111222' 
TCOON,ioos:station:TCOON:009:1,2009-01-07T13:00:00Z,27.8398,-97.0727,0.0,0.8,304.0,1.0,'11111222,11111222,11111222' 
TCOON,ioos:station:TCOON:009:1,2009-01-07T14:00:00Z,27.8398,-97.0727,0.0,2.0,253.0,2.1,'11111222,11111222,11111222' 
TCOON,ioos:station:TCOON:009:1,2009-01-07T15:00:00Z,27.8398,-97.0727,0.0,2.0,215.0,2.7,'11111222,11111222,11111222' 
TCOON,ioos:station:TCOON:009:1,2009-01-07T17:00:00Z,27.8398,-97.0727,0.0,4.1,247.0,5.3,'11111222,11111222,11111222' 
TCOON,ioos:station:TCOON:009:1,2009-01-07T18:00:00Z,27.8398,-97.0727,0.0,3.0,231.0,4.2,'11111222,11111222,11111222' 
TCOON,ioos:station:TCOON:009:1,2009-01-07T19:00:00Z,27.8398,-97.0727,0.0,4.8,197.0,7.2,'11111222,11111222,11111222' 
TCOON,ioos:station:TCOON:009:1,2009-01-07T20:00:00Z,27.8398,-97.0727,0.0,4.3,192.0,7.8,'11111222,11111222,11111222' 
TCOON,ioos:station:TCOON:009:1,2009-01-07T21:00:00Z,27.8398,-97.0727,0.0,4.9,186.0,7.2,'11111222,11111222,11111222' 
TCOON,ioos:station:TCOON:009:1,2009-01-07T22:00:00Z,27.8398,-97.0727,0.0,5.3,174.0,8.4,'11111222,11111222,11111222' 
TCOON,ioos:station:TCOON:009:1,2009-01-07T23:00:00Z,27.8398,-97.0727,0.0,4.3,164.0,6.2,'11111222,11111222,11111222' 
TCOON,ioos:station:TCOON:009:1,2009-01-08T00:00:00Z,27.8398,-97.0727,0.0,3.9,163.0,5.5,'11111222,11111222,11111222' 
TCOON,ioos:station:TCOON:009:1,2009-01-08T01:00:00Z,27.8398,-97.0727,0.0,3.8,175.0,5.4,'11111222,11111222,11111222' 
TCOON,ioos:station:TCOON:009:1,2009-01-08T02:00:00Z,27.8398,-97.0727,0.0,4.0,177.0,6.3,'11111222,11111222,11111222' 
TCOON,ioos:station:TCOON:009:1,2009-01-08T03:00:00Z,27.8398,-97.0727,0.0,3.5,177.0,6.1,'11111222,11111222,11111222' 
TCOON,ioos:station:TCOON:009:1,2009-01-08T04:00:00Z,27.8398,-97.0727,0.0,4.5,180.0,6.6,'11111222,11111222,11111222' 
TCOON,ioos:station:TCOON:009:1,2009-01-08T05:00:00Z,27.8398,-97.0727,0.0,4.7,188.0,6.5,'11111222,11111222,11111222' 
TCOON,ioos:station:TCOON:009:1,2009-01-08T06:00:00Z,27.8398,-97.0727,0.0,4.2,189.0,6.3,'11111222,11111222,11111222' 
TCOON,ioos:station:TCOON:009:1,2009-01-08T07:00:00Z,27.8398,-97.0727,0.0,3.5,202.0,5.3,'11111222,11111222,11111222' 
TCOON,ioos:station:TCOON:009:1,2009-01-08T08:00:00Z,27.8398,-97.0727,0.0,2.3,201.0,3.5,'11111222,11111222,11111222' 
TCOON,ioos:station:TCOON:009:1,2009-01-08T09:00:00Z,27.8398,-97.0727,0.0,1.8,204.0,2.9,'11111222,11111222,11111222' 
TCOON,ioos:station:TCOON:009:1,2009-01-08T10:00:00Z,27.8398,-97.0727,0.0,1.8,216.0,2.0,'11111222,11111222,11111222' 
TCOON,ioos:station:TCOON:009:1,2009-01-08T11:00:00Z,27.8398,-97.0727,0.0,2.0,236.0,2.3,'11111222,11111222,11111222' 
TCOON,ioos:station:TCOON:009:1,2009-01-08T12:00:00Z,27.8398,-97.0727,0.0,1.5,246.0,1.9,'11111222,11111222,11111222' 
TCOON,ioos:station:TCOON:009:1,2009-01-08T13:00:00Z,27.8398,-97.0727,0.0,0.5,313.0,0.7,'11111222,11111222,11111222' 
TCOON,ioos:station:TCOON:009:1,2009-01-08T14:00:00Z,27.8398,-97.0727,0.0,1.2,6.0,1.8,'11111222,11111222,11111222' 
TCOON,ioos:station:TCOON:009:1,2009-01-08T15:00:00Z,27.8398,-97.0727,0.0,0.4,61.0,0.4,'11111222,11111222,11111222' 
TCOON,ioos:station:TCOON:009:1,2009-01-08T16:00:00Z,27.8398,-97.0727,0.0,2.0,179.0,2.6,'11111222,11111222,11111222' 
TCOON,ioos:station:TCOON:009:1,2009-01-08T17:00:00Z,27.8398,-97.0727,0.0,2.4,181.0,3.3,'11111222,11111222,11111222' 
TCOON,ioos:station:TCOON:009:1,2009-01-08T18:00:00Z,27.8398,-97.0727,0.0,2.6,171.0,4.3,'11111222,11111222,11111222' 
TCOON,ioos:station:TCOON:009:1,2009-01-08T19:00:00Z,27.8398,-97.0727,0.0,3.0,168.0,4.2,'11111222,11111222,11111222' 
TCOON,ioos:station:TCOON:009:1,2009-01-08T20:00:00Z,27.8398,-97.0727,0.0,2.6,133.0,3.8,'11111222,11111222,11111222' 
TCOON,ioos:station:TCOON:009:1,2009-01-08T21:00:00Z,27.8398,-97.0727,0.0,3.9,129.0,5.1,'11111222,11111222,11111222' 
TCOON,ioos:station:TCOON:009:1,2009-01-08T22:00:00Z,27.8398,-97.0727,0.0,3.6,119.0,5.1,'11111222,11111222,11111222' 
TCOON,ioos:station:TCOON:009:1,2009-01-08T23:00:00Z,27.8398,-97.0727,0.0,3.8,115.0,4.8,'11111222,11111222,11111222' 
TCOON,ioos:station:TCOON:009:1,2009-01-09T00:00:00Z,27.8398,-97.0727,0.0,3.8,121.0,5.6,'11111222,11111222,11111222' 
TCOON,ioos:station:TCOON:009:1,2009-01-09T01:00:00Z,27.8398,-97.0727,0.0,3.4,141.0,5.3,'11111222,11111222,11111222' 
TCOON,ioos:station:TCOON:009:1,2009-01-09T03:00:00Z,27.8398,-97.0727,0.0,4.1,150.0,7.4,'11111222,11111222,11111222' 
TCOON,ioos:station:TCOON:009:1,2009-01-09T04:00:00Z,27.8398,-97.0727,0.0,4.0,153.0,6.2,'11111222,11111222,11111222' 
TCOON,ioos:station:TCOON:009:1,2009-01-09T05:00:00Z,27.8398,-97.0727,0.0,5.5,158.0,8.2,'11111222,11111222,11111222' 
TCOON,ioos:station:TCOON:009:1,2009-01-09T06:00:00Z,27.8398,-97.0727,0.0,4.1,156.0,6.5,'11111222,11111222,11111222' 
TCOON,ioos:station:TCOON:009:1,2009-01-09T08:00:00Z,27.8398,-97.0727,0.0,4.1,162.0,7.2,'11111222,11111222,11111222' 
TCOON,ioos:station:TCOON:009:1,2009-01-09T09:00:00Z,27.8398,-97.0727,0.0,3.0,156.0,5.0,'11111222,11111222,11111222' 
TCOON,ioos:station:TCOON:009:1,2009-01-09T10:00:00Z,27.8398,-97.0727,0.0,3.0,155.0,5.3,'11111222,11111222,11111222' 
TCOON,ioos:station:TCOON:009:1,2009-01-09T11:00:00Z,27.8398,-97.0727,0.0,3.1,158.0,5.4,'11111222,11111222,11111222' 
TCOON,ioos:station:TCOON:009:1,2009-01-09T12:00:00Z,27.8398,-97.0727,0.0,4.0,162.0,5.9,'11111222,11111222,11111222' 
TCOON,ioos:station:TCOON:009:1,2009-01-09T13:00:00Z,27.8398,-97.0727,0.0,4.1,158.0,6.2,'11111222,11111222,11111222' 
TCOON,ioos:station:TCOON:009:1,2009-01-09T14:00:00Z,27.8398,-97.0727,0.0,4.1,162.0,6.2,'11111222,11111222,11111222' 
TCOON,ioos:station:TCOON:009:1,2009-01-09T15:00:00Z,27.8398,-97.0727,0.0,4.3,158.0,7.1,'11111222,11111222,11111222' 
TCOON,ioos:station:TCOON:009:1,2009-01-09T16:00:00Z,27.8398,-97.0727,0.0,3.8,160.0,6.6,'11111222,11111222,11111222' 
TCOON,ioos:station:TCOON:009:1,2009-01-09T17:00:00Z,27.8398,-97.0727,0.0,4.5,159.0,6.6,'11111222,11111222,11111222' 
TCOON,ioos:station:TCOON:009:1,2009-01-09T18:00:00Z,27.8398,-97.0727,0.0,5.0,154.0,8.5,'11111222,11111222,11111222' 
TCOON,ioos:station:TCOON:009:1,2009-01-09T19:00:00Z,27.8398,-97.0727,0.0,4.1,150.0,7.0,'11111222,11111222,11111222' 
TCOON,ioos:station:TCOON:009:1,2009-01-09T20:00:00Z,27.8398,-97.0727,0.0,3.6,152.0,6.0,'11111222,11111222,11111222' 